Location: Newark
(39.5667°N, 8.9833°E)
Time: 00:56:03
(UTC+00:00)

Transit 2A - Pass Details

Date: 27 October 2019
Orbit: 601 x 957 km, 66.7° (Epoch: 14 November)

Event Time Altitude Azimuth Distance (km) Brightness Sun altitude
Rises 18:03:19 0° 246° (WSW) 3,307 10.5 -18.8°
Reaches altitude 10° 18:06:24 10° 262° (W) 2,309 9.7 -19.4°
Maximum altitude 18:10:19 21° 310° (NW) 1,609 8.2 -20.1°
Drops below altitude 10° 18:14:00 10° 359° (N) 2,146 8.3 -20.8°
Enters shadow 18:16:22 - 15° (NNE) 2,875 8.8 -21.3°
Sets 18:16:46 0° 16° (NNE) 3,007 - -21.4°
